Terug naar catalogus

ONEWEB-0161

ActiefCommunicatiePO
NORAD 48053·PAYLOAD·🇬🇧 United Kingdom

Gelanceerd Mar 25, 2021 vanaf Vostochny Cosmodrome

Loading…

Volgende Passages (komende 24 uur)

TLE

VersSource: CelesTrak SupGP

Epoch: Sep 14, 2026, 23:46 UTC

1 48053C 21025M   26257.99076806  .00002960  00000+0  81161-2 0  2579
2 48053  87.8916 302.3593 0001718 100.3166 299.6766 13.13462705    18

Volg ONEWEB-0161 in realtime met AllMySat

Download on the App Store